Regional Weather Roundup
Issued by NWS Wakefield, VA

Home | Current Version | Previous Version | Graphics & Text | Print | Product List | Glossary On
Versions: 1 2 3 4 5 6 7 8 9 10 11 12 13 14 15 16 17 18 19 20 21 22 23 24 25 26 27
000
ASUS41 KAKQ 182315
RWRAKQ

REGIONAL WEATHER ROUNDUP
NATIONAL WEATHER SERVICE WAKEFIELD VA
700 PM EDT MON SEP 18 2017

Note: "fair" indicates few or no clouds below 12,000 feet with no
significant weather and/or obstructions to visibility. * = Denotes
station may not report precipitation (e.g., rain,snow,etc.),
thunder or fog.

VAZ042-051-052>054-056-190000-
NORTHERN VIRGINIA

CITY           SKY/WX    TMP DP  RH WIND       PRES   REMARKS
WASH NATIONAL  MOCLDY    74  68  81 NE12      30.03R
DULLES         PTCLDY    73  67  81 NE7       30.03F
FORT BELVOIR   CLEAR     73  67  80 CALM      30.02S
QUANTICO       CLEAR     75  68  78 NE10      30.03R
FREDERICKSBRG* CLEAR     74  68  82 NE7       30.01R
STAFFORD*      CLEAR     73  68  86 NE7       30.06R
WARRENTON      CLEAR     74  64  71 E5        30.02S
CULPEPER*      CLEAR     76  67  74 NE5       30.02F
MANASSAS*      CLOUDY    76  66  71 E9        30.02F
LEESBURG*      CLEAR     75  68  78 E3        30.04F
WINCHESTER     MOCLDY    72  64  78 E3        30.04F
FRONT ROYAL*   CLOUDY    73  66  78 CALM      30.03S
LURAY*         PTCLDY    75  64  69 CALM      30.03F
$$

VAZ048-049-060>072-079>083-190000-
CENTRAL AND SOUTH CENTRAL VIRGINIA

CITY           SKY/WX    TMP DP  RH WIND       PRES   REMARKS
RICHMOND       PTCLDY    75  68  78 N12       29.98F
CHESTERFIELD*  NOT AVBL
PETERSBURG*    PTCLDY    76  65  68 N6        29.98F
HANOVER        CLEAR     73  68  84 VRB5      30.01S
TAPPAHANNOCK*  MOCLDY    77  65  66 N7        30.00S
QUINTON*       FAIR      74  70  87 N7        29.97F
CHARLOTTSVILLE PTCLDY    76  67  73 N3        30.01F
GORDONSVILLE*  CLEAR     74  67  80 CALM      30.00F
ORANGE*        CLEAR     73  64  73 CALM      30.01S
LOUISA*        CLEAR     73  66  78 E3        30.01S
BUMPASS*       FAIR      73  69  88 CALM      30.01S
FARMVILLE*     CLEAR     75  68  79 N3        29.98S
CREWE*         FAIR      73  73  99 CALM      29.99F
FORT PICKETT*  FAIR      73  71  96 N3        29.99S
CHASE CITY*    FAIR      74  68  80 NE3       29.99S
CLARKSVILLE*   FAIR      77  64  65 E5        29.98S
SOUTH HILL*    CLEAR     73  69  88 N6        30.03F
LAWRENCEVILLE* FAIR      73  69  87 CALM      29.97F
EMPORIA*       PTCLDY    73  68  83 NW3       29.97F
$$

VAZ088>098-190000-
SOUTHEAST VIRGINIA

CITY           SKY/WX    TMP DP  RH WIND       PRES   REMARKS
NORFOLK        CLOUDY    75  72  90 NE15G23   29.94S
VIRGINIA BEACH CLOUDY    74  68  81 N17G25    29.93S
NORFOLK NAVAL  CLOUDY    76  69  79 NE16G23   29.96S
WEST POINT*    CLOUDY    73  70  88 NE8       29.99S
SALUDA*        CLOUDY    74  71  89 N10       29.98S
NEWPORT NEWS   CLOUDY    75  69  81 NE12G20   29.96S
LANGLEY AFB    MOCLDY    75  70  83 NE14      29.95R
FORT EUSTIS    MOCLDY    77  69  76 NE10      29.94S
WILLIAMSBURG*  PTCLDY    77  72  83 NE3       29.97S
HR EXEC AP*    CLOUDY    73  70  90 N7        29.95F
FRANKLIN*      CLOUDY    74  69  83 N5        29.95S
US460-WAKEFLD  CLOUDY    76  69  79 CALM      29.96S
$$

VAZ020-022-025-037-045-190000-
WEST CENTRAL AND SOUTHWEST VIRGINIA

CITY           SKY/WX    TMP DP  RH WIND       PRES   REMARKS
STAUNTON*      CLEAR     74  65  73 CALM      30.05F
WAYNESBORO*    CLEAR     73  66  76 E3        30.05F
HOT SPRINGS VA CLOUDY    66  56  70 CALM      30.17R
LYNCHBURG      CLEAR     75  64  68 NE6       30.02S
DANVILLE       CLEAR     75  68  78 NE3       29.99S
SOUTH BOSTON*  FAIR      76  66  70 N3        29.98F
MARTINSVILLE   MOCLDY    72  67  84 CALM      30.04S
ROANOKE        PTCLDY    76  64  66 SE3       30.05S
BLACKSBURG     CLOUDY    73  63  70 E3        30.10S
DUBLIN*        CLOUDY    74  63  66 NE5       30.08S
MARION*        PTCLDY    73  60  63 NW3       30.12R
HILLSVILLE*    CLOUDY    70  61  74 CALM      30.09S
RICHLANDS*     MOCLDY    73  56  56 NW5       30.11S
WISE*          CLEAR     72  55  56 CALM      30.12S
ABINGDON*      CLEAR     76  57  51 CALM      30.07S
$$

MDZ021>025-VAZ099-100-190000-
SOUTHERN MARYLAND AND THE DELMARVA PENINSULA

CITY           SKY/WX    TMP DP  RH WIND       PRES   REMARKS
PATUXENT RIVER LGT RAIN  73  72  96 NE13      30.00F
BAY BRIDGE APT CLOUDY    75  70  83 N8        30.02S
LEONARDTOWN    CLOUDY    72  68  88 N3        30.02S
DOVER          CLEAR     73  68  83 NE10      30.01S
GEORGETOWN     PTCLDY    73  68  84 NE16      30.01F
EASTON         MOCLDY    75  68  78 NE6       30.05S
CAMBRIDGE      PTCLDY    75  66  73 NE7G15    30.01S
SALISBURY      MOCLDY    73  69  87 NE12      30.00R
OCEAN CITY     CLOUDY    72  70  93 NE15G28   29.99S
WALLOPS ISLAND PTCLDY    72  70  93 N14       29.98S
ACCOMACK*      CLOUDY    73  69  88 NE10G18   29.97S
$$

NCZ012>017-030>032-190000-
NORTH CENTRAL AND EASTERN NORTH CAROLINA

CITY           SKY/WX    TMP DP  RH WIND       PRES   REMARKS
ROANOKE RAPIDS MOCLDY    75  68  78 MISG      29.95F
RALEIGH        PTCLDY    77  64  64 NE6       29.97S
ELIZABETH CITY CLOUDY    74  72  93 N20G25    29.92S
AHOSKIE*         N/A     76  69  78 N7        29.94S
EDENTON*       MOCLDY    76  71  84 N3G16     29.93S
CURRITUCK*     CLOUDY    73  70  91 N16G26    29.93R
KILL DEVIL HLS CLOUDY    73  69  88 N12G25    29.88R
MANTEO         CLOUDY    73  70  88 NE18G24   29.89S
CAPE HATTERAS  CLOUDY    76  72  87 N12G26    29.85S
TARBORO*       NOT AVBL
GOLDSBORO      PTCLDY    77  73  86 N8        29.93R
WASHINGTON     CLOUDY    79  66  64 N8        29.91F
GREENVILLE     CLEAR     77  70  78 N7        29.95S
NEW BERN       CLOUDY    80  67  64 N9        29.91S
WILMINGTON     CLEAR     79  68  69 N6        29.92R
$$

VAZ048-190000-
ELSEWHERE

CITY           SKY/WX    TMP DP  RH WIND       PRES   REMARKS
HARRISBURG PA  MOCLDY    72  66  81 SE7       30.05F
BALTIMORE      PTCLDY    72  69  90 N5        30.03S
ANNAPOLIS      PTCLDY    76  72  87 N8        30.02S
ANDREWS AFB    CLEAR     71  66  83 N10       30.02S
PHILADELPHIA   MOCLDY    75  65  70 NE12      30.05S
HENDERSON NC   CLEAR     73  63  70 NE6       29.98F
GREENSBORO     MOCLDY    78  66  66 N5        30.00S
ROCKY MOUNT    CLEAR     75  70  84 N8        29.95S
$$

VAZ100-190000-
MARINE

STATION/POSITION TIME  TEMP    WIND        PRES    WAVE   SWELL
                       AIR SEA DIR/SP/G            HT/PER HT/PER
                 (UTC) (F)     (DEG/KT/KT) (MB)    (FT/S) (FT/S)
BRANDYWINE LGT   2248           50/ 21/ 23   N/A
CAPE MAY NJ      2248   72 75   50/  9/ 14 1015.9R
LEWES DE         2248   73 74   60/ 19/ 23 1015.9F
15NM E FENWICK I 2250   72 72   20/ 21/ 23 1015.2R   8/ 6   3/14
OCEAN-CITY-INLET 2248   72 74   50/  7/ 20 1015.9R
WACHAPREAGUE VA  2248   73 76   20/ 12/ 18 1014.6S
THOMAS POINT MD  2300   74 76  360/ 15/ 16   N/A
GOOSES REEF MD   2300   75 75   40/ 16/ 17 1016.4    2
COVE POINT MD    2248   74      20/ 16/ 19 1016.6F
SOLOMONS ISLAND  2248           10/ 11/ 14   N/A
BISHOPS HEAD MD  2248   75 78   30/ 11/ 16 1015.8F
PINEY POINT MD   2248           40/  9/ 12   N/A
POTOMAC MD       2300   76 76   50/ 16/ 19 1014.9    1
CAMBRIDGE MD     2248   75 77              1017.0S
LEWISETTA VA     2248   75 77   40/  8/ 12 1015.5S
RAPPAHANNOCK LGT 2248           30/ 19/ 22 1015.2F
STINGRAY PT      2300   76 76   60/ 16/ 19 1015.1    3/ 3
YORK RVR RNG VA  2248   76      40/ 18/ 21 1014.8R
YORKTOWN VA      2248   75 76   30/ 13/ 20 1014.1F
JAMESTOWN VA     2300      78   30/ 10/ 16   N/A     0
DOMINION TERM VA 2248           50/  5/ 14   N/A
KIPTOPEKE VA     2248      76   30/  7/ 12   N/A
CHES BAY BRIDGE  2248   75 75   30/ 22/ 24 1013.5F
CAPE HENRY VA    2248   74      20/ 24/ 30   N/A
WILLOUBY STN VA  2248           30/ 22/ 25   N/A
S CRANEY ISL VA  2248   76      40/ 18/ 22 1013.6F
CAPE HENRY BUOY  2300      74                N/A     8/13   3/13
1ST LANDING BUOY 2300   75 75              1013.6    4/ 5
64NM E OF VA BCH 2250   73 73   10/ 21/ 27 1010.7F  13/14  11/14
DUCK PIER NC     2248   74 76   10/ 22/ 27 1011.6S
44100 DUCK FRF   2235      74                N/A    10/13   7/13
44056 DUCK FRF   2300      76                N/A    11/13   7/13
OREGON INLET NC  2248          350/ 18/ 24   N/A
HATTERAS NC      2248   75 78  360/ 25/ 29 1010.9R
DIAMOND SHLS NC  2250   76 83  350/ 27/ 31 1009.1S  11/13   8/13
CAPE LOOKOUT NC  2300   78     360/ 17/ 21 1011.6R
$$




USA.gov is the U.S. government's official web portal to all federal, state and local government web resources and services.